CDT,Max TemperatureF,Mean TemperatureF,Min TemperatureF,Max Dew PointF,MeanDew PointF,Min DewpointF,Max Humidity, Mean Humidity, Min Humidity, Max Sea Level PressureIn, Mean Sea Level PressureIn, Min Sea Level PressureIn, Max VisibilityMiles, Mean VisibilityMiles, Min VisibilityMiles, Max Wind SpeedMPH, Mean Wind SpeedMPH, Max Gust SpeedMPH,PrecipitationIn, CloudCover, Events, WindDirDegrees
2012-9-1,77,72,68,73,68,60,94,86,72,30.04,29.97,29.91,10,8,1,21,10,29,0.88,7,Rain,70
2012-9-2,83,77,71,72,71,68,92,84,67,29.91,29.88,29.85,10,8,2,16,11,21,0.17,6,Rain,58
2012-9-3,88,78,68,72,69,66,93,75,50,29.93,29.90,29.87,10,9,4,9,5,,0.00,1,,35
2012-9-4,90,78,67,73,70,60,94,72,47,29.93,29.87,29.82,10,9,5,29,1,46,0.00,2,,190
2012-9-5,86,74,64,69,64,60,90,72,48,29.99,29.83,29.76,10,10,7,24,10,33,0.08,1,Rain,226
2012-9-6,82,73,63,68,59,49,92,62,32,29.97,29.91,29.85,10,10,7,10,4,16,0.00,1,,313
2012-9-7,76,66,55,67,60,54,93,79,67,29.96,29.85,29.77,10,9,2,17,7,26,0.45,4,Rain-Thunderstorm,348
2012-9-8,71,60,50,54,50,47,93,68,42,29.96,29.90,29.83,10,10,10,21,10,29,0.00,1,,296
2012-9-9,72,62,53,54,49,42,91,66,33,30.17,30.05,29.85,10,10,10,15,9,22,0.00,3,,356
2012-9-10,77,62,48,53,49,45,90,62,36,30.24,30.16,30.09,10,10,0,12,3,17,0.00,0,Fog,181
2012-9-11,83,69,55,57,53,50,81,60,36,30.16,30.11,30.05,10,10,7,20,10,29,0.00,0,,194
2012-9-12,85,72,58,61,57,54,86,63,37,30.16,30.12,30.08,10,10,10,16,9,21,0.00,0,,197
2012-9-13,65,59,53,58,53,47,93,77,56,30.35,30.26,30.14,10,9,2,17,9,24,0.16,6,Rain,357
2012-9-14,73,59,45,51,47,42,97,68,34,30.38,30.33,30.30,10,8,0,12,4,,0.01,1,Fog,267
2012-9-15,77,62,48,53,48,44,94,62,32,30.33,30.25,30.14,10,10,2,9,3,16,0.00,0,,244
2012-9-16,75,62,50,54,50,47,93,64,36,30.14,30.07,29.98,10,10,10,13,3,17,0.00,0,,216
2012-9-17,77,66,54,63,57,51,100,81,50,29.98,29.88,29.76,10,8,0,23,6,30,0.50,4,Fog-Rain-Thunderstorm,246
2012-9-18,62,52,44,50,41,33,93,68,34,30.05,29.95,29.86,10,10,10,17,10,23,0.25,2,,313
2012-9-19,75,58,41,49,42,38,93,58,31,30.07,29.96,29.82,10,10,7,28,9,38,0.00,1,,196
2012-9-20,71,58,47,52,42,34,86,55,26,29.96,29.91,29.85,10,10,10,17,10,25,0.00,0,,278
2012-9-21,62,54,46,51,45,41,92,74,50,29.96,29.88,29.78,10,10,7,20,5,25,0.01,3,Rain,37
2012-9-22,59,50,42,46,39,33,96,71,45,30.20,30.03,29.83,10,8,0,24,10,33,0.01,3,Fog,302
2012-9-23,61,48,36,40,34,27,93,62,28,30.29,30.25,30.20,10,10,10,17,6,22,0.00,0,,302
2012-9-24,70,53,36,40,37,33,94,57,30,30.24,30.10,29.92,10,10,10,21,7,25,0.00,0,,213
2012-9-25,76,64,52,62,53,41,94,69,56,29.91,29.86,29.82,10,10,1,14,6,16,0.00,2,,197
2012-9-26,73,62,52,59,53,46,97,77,45,30.17,30.00,29.87,10,6,0,13,5,18,0.00,3,Fog,44
2012-9-27,68,56,45,46,43,40,83,64,39,30.23,30.18,30.13,10,10,10,13,8,16,0.00,1,,28
2012-9-28,71,56,43,47,43,39,87,64,38,30.21,30.16,30.10,10,10,10,16,7,20,0.00,0,,15
2012-9-29,79,61,43,49,43,40,93,58,25,30.14,30.06,29.94,10,9,4,14,5,22,0.00,0,,299
2012-9-30,71,58,45,50,44,40,91,62,33,29.99,29.95,29.91,10,10,10,14,8,20,0.00,0,,54